Year,Month,Day,Hour,Minute,Value (Times are PST for temperature in C)
2011,11,25,00,00,6.20
2011,11,25,00,05,6.20
2011,11,25,00,06,6.10
2011,11,25,00,07,6.00
2011,11,25,00,08,6.00
2011,11,25,00,09,5.90
2011,11,25,00,10,5.80
2011,11,25,00,11,5.80
2011,11,25,00,12,5.70
2011,11,25,00,13,5.70
2011,11,25,00,14,5.60
2011,11,25,00,15,5.60
2011,11,25,00,16,5.60
2011,11,25,00,17,5.50
2011,11,25,00,18,5.50
2011,11,25,00,19,5.40
2011,11,25,00,20,5.40
2011,11,25,00,21,5.40
2011,11,25,00,22,5.50
2011,11,25,00,23,5.60
2011,11,25,00,24,5.60
2011,11,25,00,25,5.60
2011,11,25,00,26,5.60
2011,11,25,00,27,5.50
2011,11,25,00,28,5.50
2011,11,25,00,29,5.50
2011,11,25,00,30,5.40
2011,11,25,00,31,5.40
2011,11,25,00,32,5.30
2011,11,25,00,33,5.30
2011,11,25,00,34,5.30
2011,11,25,00,35,5.30
2011,11,25,00,36,5.30
2011,11,25,00,37,5.30
2011,11,25,00,38,5.30
2011,11,25,00,39,5.30
2011,11,25,00,40,5.30
2011,11,25,00,41,5.30
2011,11,25,00,42,5.30
2011,11,25,00,43,5.30
2011,11,25,00,44,5.40
2011,11,25,00,45,5.40
2011,11,25,00,46,5.30
2011,11,25,00,47,5.30
2011,11,25,00,48,5.30
2011,11,25,00,49,5.30
2011,11,25,00,50,5.30
2011,11,25,00,51,5.20
2011,11,25,00,52,5.20
2011,11,25,00,53,5.20
2011,11,25,00,54,5.20
2011,11,25,00,55,5.20
2011,11,25,00,56,5.20
2011,11,25,00,57,5.30
2011,11,25,00,58,5.20
2011,11,25,00,59,5.20
2011,11,25,01,00,5.20
2011,11,25,01,01,5.20
2011,11,25,01,02,5.20
2011,11,25,01,03,5.20
2011,11,25,01,04,5.20
2011,11,25,01,05,5.20
2011,11,25,01,06,5.20
2011,11,25,01,07,5.20
2011,11,25,01,08,5.20
2011,11,25,01,09,5.20
2011,11,25,01,10,5.20
2011,11,25,01,11,5.20
2011,11,25,01,12,5.20
2011,11,25,01,13,5.20
2011,11,25,01,14,5.20
2011,11,25,01,15,5.10
2011,11,25,01,16,5.10
2011,11,25,01,17,5.00
2011,11,25,01,18,4.90
2011,11,25,01,19,4.90
2011,11,25,01,20,4.80
2011,11,25,01,21,4.80
2011,11,25,01,22,4.70
2011,11,25,01,23,4.60
2011,11,25,01,24,4.50
2011,11,25,01,25,4.50
2011,11,25,01,26,4.40
2011,11,25,01,27,4.30
2011,11,25,01,28,4.30
2011,11,25,01,29,4.20
2011,11,25,01,30,4.20
2011,11,25,01,31,4.10
2011,11,25,01,32,4.00
2011,11,25,01,33,4.00
2011,11,25,01,34,3.90
2011,11,25,01,35,3.80
2011,11,25,01,36,3.70
2011,11,25,01,37,3.70
2011,11,25,01,38,3.60
2011,11,25,01,39,3.50
2011,11,25,01,40,3.50
2011,11,25,01,41,3.40
2011,11,25,01,42,3.40
2011,11,25,01,43,3.30
2011,11,25,01,44,3.30
2011,11,25,01,45,3.20
2011,11,25,01,46,3.20
2011,11,25,01,47,3.20
2011,11,25,01,48,3.10
2011,11,25,01,49,3.10
2011,11,25,01,50,3.10
2011,11,25,01,51,3.00
2011,11,25,01,52,3.00
2011,11,25,01,53,2.90
2011,11,25,01,54,2.90
2011,11,25,01,55,2.90
2011,11,25,01,56,2.80
2011,11,25,01,57,2.80
2011,11,25,01,58,2.80
2011,11,25,01,59,2.80
2011,11,25,02,00,2.80
2011,11,25,02,01,2.70
2011,11,25,02,02,2.70
2011,11,25,02,03,2.70
2011,11,25,02,04,2.60
2011,11,25,02,05,2.60
2011,11,25,02,06,2.50
2011,11,25,02,07,2.50
2011,11,25,02,08,2.50
2011,11,25,02,09,2.40
2011,11,25,02,10,2.40
2011,11,25,02,11,2.40
2011,11,25,02,12,2.40
2011,11,25,02,13,2.40
2011,11,25,02,14,2.30
2011,11,25,02,15,2.30
2011,11,25,02,16,2.30
2011,11,25,02,17,2.30
2011,11,25,02,18,2.30
2011,11,25,02,19,2.20
2011,11,25,02,20,2.20
2011,11,25,02,21,2.20
2011,11,25,02,22,2.20
2011,11,25,02,23,2.10
2011,11,25,02,24,2.10
2011,11,25,02,25,2.10
2011,11,25,02,26,2.10
2011,11,25,02,27,2.10
2011,11,25,02,28,2.10
2011,11,25,02,29,2.10
2011,11,25,02,30,2.10
2011,11,25,02,31,2.00
2011,11,25,02,32,2.00
2011,11,25,02,33,2.00
2011,11,25,02,34,2.00
2011,11,25,02,35,2.10
2011,11,25,02,36,2.10
2011,11,25,02,37,2.10
2011,11,25,02,38,2.10
2011,11,25,02,39,2.10
2011,11,25,02,40,2.10
2011,11,25,02,41,2.10
2011,11,25,02,42,2.10
2011,11,25,02,43,2.10
2011,11,25,02,44,2.10
2011,11,25,02,45,2.00
2011,11,25,02,46,2.00
2011,11,25,02,47,2.00
2011,11,25,02,48,2.00
2011,11,25,02,49,2.00
2011,11,25,02,50,1.90
2011,11,25,02,51,1.90
2011,11,25,02,52,1.90
2011,11,25,02,53,1.90
2011,11,25,02,54,1.90
2011,11,25,02,55,1.90
2011,11,25,02,56,1.80
2011,11,25,02,57,1.80
2011,11,25,02,58,1.80
2011,11,25,02,59,1.80
2011,11,25,03,00,1.80
2011,11,25,03,01,1.80
2011,11,25,03,02,1.80
2011,11,25,03,03,1.80
2011,11,25,03,04,1.80
2011,11,25,03,05,1.80
2011,11,25,03,06,1.80
2011,11,25,03,07,1.70
2011,11,25,03,08,1.70
2011,11,25,03,09,1.70
2011,11,25,03,10,1.70
2011,11,25,03,11,1.70
2011,11,25,03,12,1.70
2011,11,25,03,13,1.60
2011,11,25,03,14,1.60
2011,11,25,03,15,1.60
2011,11,25,03,16,1.60
2011,11,25,03,17,1.60
2011,11,25,03,18,1.60
2011,11,25,03,19,1.60
2011,11,25,03,20,1.60
2011,11,25,03,21,1.60
2011,11,25,03,22,1.50
2011,11,25,03,23,1.50
2011,11,25,03,24,1.50
2011,11,25,03,25,1.50
2011,11,25,03,26,1.50
2011,11,25,03,27,1.50
2011,11,25,03,28,1.50
2011,11,25,03,29,1.40
2011,11,25,03,30,1.40
2011,11,25,03,31,1.40
2011,11,25,03,32,1.40
2011,11,25,03,33,1.40
2011,11,25,03,34,1.40
2011,11,25,03,35,1.30
2011,11,25,03,36,1.30
2011,11,25,03,37,1.30
2011,11,25,03,38,1.30
2011,11,25,03,39,1.30
2011,11,25,03,40,1.30
2011,11,25,03,41,1.30
2011,11,25,03,42,1.30
2011,11,25,03,43,1.20
2011,11,25,03,44,1.20
2011,11,25,03,45,1.20
2011,11,25,03,46,1.20
2011,11,25,03,47,1.20
2011,11,25,03,48,1.20
2011,11,25,03,49,1.20
2011,11,25,03,50,1.20
2011,11,25,03,51,1.20
2011,11,25,03,52,1.20
2011,11,25,03,53,1.20
2011,11,25,03,54,1.20
2011,11,25,03,55,1.20
2011,11,25,03,56,1.20
2011,11,25,03,57,1.10
2011,11,25,03,58,1.10
2011,11,25,03,59,1.10
2011,11,25,04,00,1.10
2011,11,25,04,01,1.10
2011,11,25,04,02,1.10
2011,11,25,04,03,1.10
2011,11,25,04,04,1.10
2011,11,25,04,05,1.10
2011,11,25,04,06,1.10
2011,11,25,04,07,1.10
2011,11,25,04,08,1.10
2011,11,25,04,09,1.10
2011,11,25,04,10,1.10
2011,11,25,04,11,1.10
2011,11,25,04,12,1.10
2011,11,25,04,13,1.10
2011,11,25,04,14,1.10
2011,11,25,04,15,1.10
2011,11,25,04,16,1.10
2011,11,25,04,17,1.10
2011,11,25,04,18,1.10
2011,11,25,04,19,1.10
2011,11,25,04,20,1.00
2011,11,25,04,21,1.00
2011,11,25,04,22,1.00
2011,11,25,04,23,1.00
2011,11,25,04,24,1.00
2011,11,25,04,25,0.90
2011,11,25,04,26,0.90
2011,11,25,04,27,0.90
2011,11,25,04,28,1.00
2011,11,25,04,29,1.00
2011,11,25,04,30,1.00
2011,11,25,04,31,1.00
2011,11,25,04,32,1.10
2011,11,25,04,33,1.10
2011,11,25,04,34,1.10
2011,11,25,04,35,1.10
2011,11,25,04,36,1.10
2011,11,25,04,37,1.10
2011,11,25,04,38,1.10
2011,11,25,04,39,1.10
2011,11,25,04,40,1.10
2011,11,25,04,41,1.10
2011,11,25,04,42,1.20
2011,11,25,04,43,1.20
2011,11,25,04,44,1.20
2011,11,25,04,45,1.20
2011,11,25,04,46,1.20
2011,11,25,04,47,1.20
2011,11,25,04,48,1.20
2011,11,25,04,49,1.20
2011,11,25,04,50,1.10
2011,11,25,04,51,1.10
2011,11,25,04,52,1.10
2011,11,25,04,53,1.10
2011,11,25,04,54,1.10
2011,11,25,04,55,1.10
2011,11,25,04,56,1.00
2011,11,25,04,57,1.00
2011,11,25,04,58,1.00
2011,11,25,04,59,1.00
2011,11,25,05,00,0.90
2011,11,25,05,01,0.90
2011,11,25,05,02,0.90
2011,11,25,05,03,0.90
2011,11,25,05,04,0.90
2011,11,25,05,05,0.80
2011,11,25,05,06,0.80
2011,11,25,05,07,0.80
2011,11,25,05,08,0.80
2011,11,25,05,09,0.90
2011,11,25,05,10,0.90
2011,11,25,05,11,0.90
2011,11,25,05,12,0.90
2011,11,25,05,13,0.90
2011,11,25,05,14,0.90
2011,11,25,05,15,0.90
2011,11,25,05,16,0.90
2011,11,25,05,17,0.90
2011,11,25,05,18,0.90
2011,11,25,05,19,0.90
2011,11,25,05,20,0.80
2011,11,25,05,21,0.80
2011,11,25,05,22,0.90
2011,11,25,05,23,0.90
2011,11,25,05,24,0.90
2011,11,25,05,25,0.90
2011,11,25,05,26,0.90
2011,11,25,05,27,0.90
2011,11,25,05,28,0.90
2011,11,25,05,29,0.90
2011,11,25,05,30,0.90
2011,11,25,05,31,0.90
2011,11,25,05,32,0.90
2011,11,25,05,33,0.90
2011,11,25,05,34,0.90
2011,11,25,05,35,0.90
2011,11,25,05,36,0.90
2011,11,25,05,37,0.90
2011,11,25,05,38,0.90
2011,11,25,05,39,0.90
2011,11,25,05,40,0.90
2011,11,25,05,41,1.00
2011,11,25,05,42,1.00
2011,11,25,05,43,1.00
2011,11,25,05,44,1.00
2011,11,25,05,45,1.00
2011,11,25,05,46,1.00
2011,11,25,05,47,1.00
2011,11,25,05,48,1.10
2011,11,25,05,49,1.10
2011,11,25,05,50,1.10
2011,11,25,05,51,1.10
2011,11,25,05,52,1.10
2011,11,25,05,53,1.10
2011,11,25,05,54,1.10
2011,11,25,05,55,1.10
2011,11,25,05,56,1.10
2011,11,25,05,57,1.10
2011,11,25,05,58,1.10
2011,11,25,05,59,1.20
2011,11,25,06,00,1.20
2011,11,25,06,01,1.20
2011,11,25,06,02,1.20
2011,11,25,06,03,1.20
2011,11,25,06,04,1.20
2011,11,25,06,05,1.20
2011,11,25,06,06,1.20
2011,11,25,06,07,1.20
2011,11,25,06,08,1.20
2011,11,25,06,09,1.10
2011,11,25,06,10,1.10
2011,11,25,06,11,1.10
2011,11,25,06,12,1.00
2011,11,25,06,13,1.00
2011,11,25,06,14,1.00
2011,11,25,06,15,0.90
2011,11,25,06,16,1.00
2011,11,25,06,17,1.00
2011,11,25,06,18,1.00
2011,11,25,06,19,1.00
2011,11,25,06,20,1.00
2011,11,25,06,21,1.00
2011,11,25,06,22,1.00
2011,11,25,06,23,1.00
2011,11,25,06,24,0.90
2011,11,25,06,25,0.90
2011,11,25,06,26,0.90
2011,11,25,06,27,0.90
2011,11,25,06,28,0.90
2011,11,25,06,29,0.90
2011,11,25,06,30,0.90
2011,11,25,06,31,1.00
2011,11,25,06,32,1.00
2011,11,25,06,33,1.00
2011,11,25,06,34,1.00
2011,11,25,06,35,1.00
2011,11,25,06,36,1.00
2011,11,25,06,37,1.00
2011,11,25,06,38,1.00
2011,11,25,06,39,0.90
2011,11,25,06,40,0.90
2011,11,25,06,41,0.90
2011,11,25,06,42,0.90
2011,11,25,06,43,0.90
2011,11,25,06,44,0.90
2011,11,25,06,45,0.90
2011,11,25,06,46,0.90
2011,11,25,06,47,0.90
2011,11,25,06,48,0.90
2011,11,25,06,49,0.90
2011,11,25,06,50,0.90
2011,11,25,06,51,0.90
2011,11,25,06,52,0.90
2011,11,25,06,53,0.80
2011,11,25,06,54,0.80
2011,11,25,06,55,0.80
2011,11,25,06,56,0.80
2011,11,25,06,57,0.70
2011,11,25,06,58,0.70
2011,11,25,06,59,0.70
2011,11,25,07,00,0.70
2011,11,25,07,01,0.60
2011,11,25,07,02,0.60
2011,11,25,07,03,0.60
2011,11,25,07,04,0.60
2011,11,25,07,05,0.60
2011,11,25,07,06,0.60
2011,11,25,07,07,0.60
2011,11,25,07,08,0.60
2011,11,25,07,09,0.60
2011,11,25,07,10,0.60
2011,11,25,07,11,0.60
2011,11,25,07,12,0.60
2011,11,25,07,13,0.60
2011,11,25,07,14,0.60
2011,11,25,07,15,0.60
2011,11,25,07,16,0.60
2011,11,25,07,17,0.60
2011,11,25,07,18,0.60
2011,11,25,07,19,0.60
2011,11,25,07,20,0.60
2011,11,25,07,21,0.60
2011,11,25,07,22,0.60
2011,11,25,07,23,0.60
2011,11,25,07,24,0.60
2011,11,25,07,25,0.60
2011,11,25,07,26,0.60
2011,11,25,07,27,0.60
2011,11,25,07,28,0.60
2011,11,25,07,29,0.60
2011,11,25,07,30,0.50
2011,11,25,07,31,0.50
2011,11,25,07,32,0.50
2011,11,25,07,33,0.50
2011,11,25,07,34,0.50
2011,11,25,07,35,0.50
2011,11,25,07,36,0.50
2011,11,25,07,37,0.50
2011,11,25,07,38,0.50
2011,11,25,07,39,0.50
2011,11,25,07,40,0.50
2011,11,25,07,41,0.50
2011,11,25,07,42,0.50
2011,11,25,07,43,0.50
2011,11,25,07,44,0.50
2011,11,25,07,45,0.50
2011,11,25,07,46,0.50
2011,11,25,07,47,0.50
2011,11,25,07,48,0.50
2011,11,25,07,49,0.50
2011,11,25,07,50,0.50
2011,11,25,07,51,0.50
2011,11,25,07,52,0.50
2011,11,25,07,53,0.50
2011,11,25,07,54,0.50
2011,11,25,07,55,0.50
2011,11,25,07,56,0.50
2011,11,25,07,57,0.50
2011,11,25,07,58,0.60
2011,11,25,07,59,0.60
2011,11,25,08,00,0.60
2011,11,25,08,01,0.60
2011,11,25,08,02,0.60
2011,11,25,08,03,0.60
2011,11,25,08,04,0.60
2011,11,25,08,05,0.60
2011,11,25,08,06,0.60
2011,11,25,08,07,0.60
2011,11,25,08,08,0.60
2011,11,25,08,09,0.60
2011,11,25,08,10,0.60
2011,11,25,08,11,0.60
2011,11,25,08,12,0.60
2011,11,25,08,13,0.60
2011,11,25,08,14,0.60
2011,11,25,08,15,0.60
2011,11,25,08,16,0.60
2011,11,25,08,17,0.60
2011,11,25,08,18,0.50
2011,11,25,08,19,0.50
2011,11,25,08,20,0.50
2011,11,25,08,21,0.50
2011,11,25,08,22,0.50
2011,11,25,08,23,0.50
2011,11,25,08,24,0.50
2011,11,25,08,25,0.50
2011,11,25,08,26,0.50
2011,11,25,08,27,0.50
2011,11,25,08,28,0.60
2011,11,25,08,29,0.60
2011,11,25,08,30,0.60
2011,11,25,08,31,0.60
2011,11,25,08,32,0.60
2011,11,25,08,33,0.60
2011,11,25,08,34,0.60
2011,11,25,08,35,0.60
2011,11,25,08,36,0.60
2011,11,25,08,37,0.60
2011,11,25,08,38,0.60
2011,11,25,08,39,0.70
2011,11,25,08,40,0.70
2011,11,25,08,41,0.70
2011,11,25,08,42,0.70
2011,11,25,08,43,0.70
2011,11,25,08,44,0.80
2011,11,25,08,45,0.80
2011,11,25,08,46,0.80
2011,11,25,08,47,0.80
2011,11,25,08,48,0.80
2011,11,25,08,49,0.90
2011,11,25,08,50,0.90
2011,11,25,08,51,0.90
2011,11,25,08,52,0.90
2011,11,25,08,53,1.00
2011,11,25,08,54,1.00
2011,11,25,08,55,1.00
2011,11,25,08,56,1.00
2011,11,25,08,57,1.00
2011,11,25,08,58,1.10
2011,11,25,08,59,1.10
2011,11,25,09,00,1.10
2011,11,25,09,01,1.10
2011,11,25,09,02,1.10
2011,11,25,09,03,1.10
2011,11,25,09,04,1.10
2011,11,25,09,05,1.10
2011,11,25,09,06,1.20
2011,11,25,09,07,1.20
2011,11,25,09,08,1.20
2011,11,25,09,09,1.20
2011,11,25,09,10,1.20
2011,11,25,09,11,1.20
2011,11,25,09,12,1.20
2011,11,25,09,13,1.20
2011,11,25,09,14,1.20
2011,11,25,09,15,1.30
2011,11,25,09,16,1.30
2011,11,25,09,17,1.30
2011,11,25,09,18,1.30
2011,11,25,09,19,1.40
2011,11,25,09,20,1.40
2011,11,25,09,21,1.40
2011,11,25,09,22,1.40
2011,11,25,09,23,1.50
2011,11,25,09,24,1.50
2011,11,25,09,25,1.50
2011,11,25,09,26,1.60
2011,11,25,09,27,1.60
2011,11,25,09,28,1.60
2011,11,25,09,29,1.60
2011,11,25,09,30,1.70
2011,11,25,09,31,1.70
2011,11,25,09,32,1.70
2011,11,25,09,33,1.80
2011,11,25,09,34,1.80
2011,11,25,09,35,1.80
2011,11,25,09,36,1.80
2011,11,25,09,37,1.80
2011,11,25,09,38,1.90
2011,11,25,09,39,1.90
2011,11,25,09,40,2.00
2011,11,25,09,41,2.00
2011,11,25,09,42,2.10
2011,11,25,09,43,2.10
2011,11,25,09,44,2.10
2011,11,25,09,45,2.20
2011,11,25,09,46,2.20
2011,11,25,09,47,2.20
2011,11,25,09,48,2.30
2011,11,25,09,49,2.30
2011,11,25,09,50,2.30
2011,11,25,09,51,2.40
2011,11,25,09,52,2.40
2011,11,25,09,53,2.40
2011,11,25,09,54,2.50
2011,11,25,09,55,2.50
2011,11,25,09,56,2.50
2011,11,25,09,57,2.50
2011,11,25,09,58,2.60
2011,11,25,09,59,2.60
2011,11,25,10,00,2.70
2011,11,25,10,01,2.70
2011,11,25,10,02,2.80
2011,11,25,10,03,2.80
2011,11,25,10,04,2.90
2011,11,25,10,05,2.90
2011,11,25,10,06,3.00
2011,11,25,10,07,3.10
2011,11,25,10,08,3.20
2011,11,25,10,09,3.30
2011,11,25,10,10,3.30
2011,11,25,10,11,3.40
2011,11,25,10,12,3.40
2011,11,25,10,13,3.40
2011,11,25,10,14,3.40
2011,11,25,10,15,3.30
2011,11,25,10,16,3.30
2011,11,25,10,17,3.30
2011,11,25,10,18,3.30
2011,11,25,10,19,3.50
2011,11,25,10,20,3.50
2011,11,25,10,21,3.60
2011,11,25,10,22,3.60
2011,11,25,10,23,3.60
2011,11,25,10,24,3.70
2011,11,25,10,25,3.70
2011,11,25,10,26,3.80
2011,11,25,10,27,3.80
2011,11,25,10,28,3.80
2011,11,25,10,29,3.90
2011,11,25,10,30,4.00
2011,11,25,10,31,4.00
2011,11,25,10,32,4.10
2011,11,25,10,33,4.20
2011,11,25,10,34,4.30
2011,11,25,10,35,4.40
2011,11,25,10,36,4.50
2011,11,25,10,37,4.50
2011,11,25,10,38,4.60
2011,11,25,10,39,4.70
2011,11,25,10,40,4.70
2011,11,25,10,41,4.70
2011,11,25,10,42,4.80
2011,11,25,10,43,4.80
2011,11,25,10,44,4.90
2011,11,25,10,45,4.90
2011,11,25,10,46,5.00
2011,11,25,10,47,5.10
2011,11,25,10,48,5.20
2011,11,25,10,49,5.30
2011,11,25,10,50,5.40
2011,11,25,10,51,5.50
2011,11,25,10,52,5.60
2011,11,25,10,53,5.70
2011,11,25,10,54,5.70
2011,11,25,10,55,5.80
2011,11,25,10,56,5.90
2011,11,25,10,57,5.90
2011,11,25,10,58,6.00
2011,11,25,10,59,6.10
2011,11,25,11,00,6.10
2011,11,25,11,01,6.20
2011,11,25,11,02,6.20
2011,11,25,11,03,6.30
2011,11,25,11,04,6.30
2011,11,25,11,05,6.40
2011,11,25,11,06,6.40
2011,11,25,11,07,6.40
2011,11,25,11,08,6.50
2011,11,25,11,09,6.50
2011,11,25,11,10,6.60
2011,11,25,11,11,6.60
2011,11,25,11,12,6.70
2011,11,25,11,13,6.70
2011,11,25,11,14,6.70
2011,11,25,11,15,6.80
2011,11,25,11,16,6.80
2011,11,25,11,17,6.80
2011,11,25,11,18,6.90
2011,11,25,11,19,6.90
2011,11,25,11,20,6.90
2011,11,25,11,21,6.90
2011,11,25,11,22,6.90
2011,11,25,11,23,6.90
2011,11,25,11,24,6.90
2011,11,25,11,25,7.00
2011,11,25,11,26,7.00
2011,11,25,11,27,7.10
2011,11,25,11,28,7.10
2011,11,25,11,29,7.10
2011,11,25,11,30,7.20
2011,11,25,11,31,7.20
2011,11,25,11,32,7.20
2011,11,25,11,33,7.30
2011,11,25,11,34,7.30
2011,11,25,11,35,7.30
2011,11,25,11,36,7.40
2011,11,25,11,37,7.40
2011,11,25,11,38,7.40
2011,11,25,11,39,7.50
2011,11,25,11,40,7.50
2011,11,25,11,41,7.60
2011,11,25,11,42,7.60
2011,11,25,11,43,7.60
2011,11,25,11,44,7.70
2011,11,25,11,45,7.70
2011,11,25,11,46,7.60
2011,11,25,11,47,7.60
2011,11,25,11,48,7.60
2011,11,25,11,49,7.60
2011,11,25,11,50,7.60
2011,11,25,11,51,7.70
2011,11,25,11,52,7.70
2011,11,25,11,53,7.70
2011,11,25,11,54,7.70
2011,11,25,11,55,7.60
2011,11,25,11,56,7.60
2011,11,25,11,57,7.60
2011,11,25,11,58,7.50
2011,11,25,11,59,7.50
2011,11,25,12,00,7.50
2011,11,25,12,01,7.40
2011,11,25,12,02,7.40
2011,11,25,12,03,7.40
2011,11,25,12,04,7.40
2011,11,25,12,05,7.30
2011,11,25,12,06,7.30
2011,11,25,12,07,7.30
2011,11,25,12,08,7.30
2011,11,25,12,09,7.30
2011,11,25,12,10,7.30
2011,11,25,12,11,7.30
2011,11,25,12,12,7.30
2011,11,25,12,13,7.20
2011,11,25,12,14,7.20
2011,11,25,12,15,7.20
2011,11,25,12,16,7.20
2011,11,25,12,17,7.20
2011,11,25,12,18,7.20
2011,11,25,12,19,7.20
2011,11,25,12,20,7.20
2011,11,25,12,21,7.30
2011,11,25,12,22,7.30
2011,11,25,12,23,7.30
2011,11,25,12,24,7.30
2011,11,25,12,25,7.30
2011,11,25,12,26,7.30
2011,11,25,12,27,7.40
2011,11,25,12,28,7.40
2011,11,25,12,29,7.40
2011,11,25,12,30,7.40
2011,11,25,12,31,7.40
2011,11,25,12,32,7.40
2011,11,25,12,33,7.40
2011,11,25,12,34,7.40
2011,11,25,12,35,7.40
2011,11,25,12,36,7.40
2011,11,25,12,37,7.40
2011,11,25,12,38,7.40
2011,11,25,12,39,7.40
2011,11,25,12,40,7.40
2011,11,25,12,41,7.30
2011,11,25,12,42,7.30
2011,11,25,12,43,7.30
2011,11,25,12,44,7.30
2011,11,25,12,45,7.30
2011,11,25,12,46,7.30
2011,11,25,12,47,7.30
2011,11,25,12,48,7.20
2011,11,25,12,49,7.20
2011,11,25,12,50,7.20
2011,11,25,12,51,7.20
2011,11,25,12,52,7.20
2011,11,25,12,53,7.20
2011,11,25,12,54,7.20
2011,11,25,12,55,7.20
2011,11,25,12,56,7.20
2011,11,25,12,57,7.20
2011,11,25,12,58,7.20
2011,11,25,12,59,7.20
2011,11,25,13,00,7.20
2011,11,25,13,01,7.20
2011,11,25,13,02,7.10
2011,11,25,13,03,7.10
2011,11,25,13,04,7.10
2011,11,25,13,05,7.10
2011,11,25,13,06,7.10
2011,11,25,13,07,7.10
2011,11,25,13,08,7.10
2011,11,25,13,09,7.10
2011,11,25,13,10,7.10
2011,11,25,13,11,7.10
2011,11,25,13,12,7.10
2011,11,25,13,13,7.20
2011,11,25,13,14,7.20
2011,11,25,13,15,7.20
2011,11,25,13,16,7.20
2011,11,25,13,17,7.20
2011,11,25,13,18,7.20
2011,11,25,13,19,7.30
2011,11,25,13,20,7.30
2011,11,25,13,21,7.30
2011,11,25,13,22,7.30
2011,11,25,13,23,7.30
2011,11,25,13,24,7.30
2011,11,25,13,25,7.30
2011,11,25,13,26,7.30
2011,11,25,13,27,7.30
2011,11,25,13,28,7.30
2011,11,25,13,29,7.30
2011,11,25,13,30,7.30
2011,11,25,13,31,7.30
2011,11,25,13,32,7.30
2011,11,25,13,33,7.30
2011,11,25,13,34,7.30
2011,11,25,13,35,7.30
2011,11,25,13,36,7.30
2011,11,25,13,37,7.30
2011,11,25,13,38,7.30
2011,11,25,13,39,7.30
2011,11,25,13,40,7.20
2011,11,25,13,41,7.20
2011,11,25,13,42,7.20
2011,11,25,13,43,7.20
2011,11,25,13,44,7.20
2011,11,25,13,45,7.20
2011,11,25,13,46,7.20
2011,11,25,13,47,7.10
2011,11,25,13,48,7.10
2011,11,25,13,49,7.10
2011,11,25,13,50,7.10
2011,11,25,13,51,7.10
2011,11,25,13,52,7.10
2011,11,25,13,53,7.10
2011,11,25,13,54,7.10
2011,11,25,13,55,7.00
2011,11,25,13,56,7.00
2011,11,25,13,57,7.00
2011,11,25,13,58,6.90
2011,11,25,13,59,6.90
2011,11,25,14,00,6.90
2011,11,25,14,01,6.90
2011,11,25,14,02,6.90
2011,11,25,14,03,6.90
2011,11,25,14,04,6.90
2011,11,25,14,05,6.90
2011,11,25,14,06,6.90
2011,11,25,14,07,6.90
2011,11,25,14,08,6.90
2011,11,25,14,09,6.80
2011,11,25,14,10,6.90
2011,11,25,14,11,6.80
2011,11,25,14,12,6.80
2011,11,25,14,13,6.80
2011,11,25,14,14,6.80
2011,11,25,14,15,6.80
2011,11,25,14,16,6.80
2011,11,25,14,17,6.80
2011,11,25,14,18,6.80
2011,11,25,14,19,6.80
2011,11,25,14,20,6.80
2011,11,25,14,21,6.80
2011,11,25,14,22,6.80
2011,11,25,14,23,6.80
2011,11,25,14,24,6.80
2011,11,25,14,25,6.80
2011,11,25,14,26,6.80
2011,11,25,14,27,6.80
2011,11,25,14,28,6.80
2011,11,25,14,29,6.80
2011,11,25,14,30,6.80
2011,11,25,14,31,6.80
2011,11,25,14,32,6.80
2011,11,25,14,33,6.80
2011,11,25,14,34,6.80
2011,11,25,14,35,6.80
2011,11,25,14,36,6.80
2011,11,25,14,37,6.80
2011,11,25,14,38,6.80
2011,11,25,14,39,6.80
2011,11,25,14,40,6.80
2011,11,25,14,41,6.80
2011,11,25,14,42,6.80
2011,11,25,14,43,6.80
2011,11,25,14,44,6.80
2011,11,25,14,45,6.80
2011,11,25,14,46,6.80
2011,11,25,14,47,6.70
2011,11,25,14,48,6.70
2011,11,25,14,49,6.70
2011,11,25,14,50,6.70
2011,11,25,14,51,6.70
2011,11,25,14,52,6.70
2011,11,25,14,53,6.70
2011,11,25,14,54,6.70
2011,11,25,14,55,6.70
2011,11,25,14,56,6.70
2011,11,25,14,57,6.80
2011,11,25,14,58,6.70
2011,11,25,14,59,6.70
2011,11,25,15,00,6.70
2011,11,25,15,01,6.70
2011,11,25,15,02,6.70
2011,11,25,15,03,6.70
2011,11,25,15,04,6.70
2011,11,25,15,05,6.70
2011,11,25,15,06,6.70
2011,11,25,15,07,6.70
2011,11,25,15,08,6.70
2011,11,25,15,09,6.70
2011,11,25,15,10,6.70
2011,11,25,15,11,6.70
2011,11,25,15,12,6.70
2011,11,25,15,13,6.80
2011,11,25,15,14,6.80
2011,11,25,15,15,6.80
2011,11,25,15,16,6.80
2011,11,25,15,17,6.80
2011,11,25,15,18,6.80
2011,11,25,15,19,6.80
2011,11,25,15,20,6.80
2011,11,25,15,21,6.80
2011,11,25,15,22,6.80
2011,11,25,15,23,6.80
2011,11,25,15,24,6.80
2011,11,25,15,25,6.80
2011,11,25,15,26,6.80
2011,11,25,15,27,6.80
2011,11,25,15,28,6.80
2011,11,25,15,29,6.80
2011,11,25,15,30,6.80
2011,11,25,15,31,6.80
2011,11,25,15,32,6.80
2011,11,25,15,33,6.80
2011,11,25,15,34,6.80
2011,11,25,15,35,6.80
2011,11,25,15,36,6.70
2011,11,25,15,37,6.70
2011,11,25,15,38,6.70
2011,11,25,15,39,6.70
2011,11,25,15,40,6.70
2011,11,25,15,41,6.70
2011,11,25,15,42,6.60
2011,11,25,15,43,6.60
2011,11,25,15,44,6.60
2011,11,25,15,45,6.60
2011,11,25,15,46,6.60
2011,11,25,15,47,6.60
2011,11,25,15,48,6.50
2011,11,25,15,49,6.50
2011,11,25,15,50,6.50
2011,11,25,15,51,6.50
2011,11,25,15,52,6.40
2011,11,25,15,53,6.40
2011,11,25,15,54,6.40
2011,11,25,15,55,6.40
2011,11,25,15,56,6.40
2011,11,25,15,57,6.30
2011,11,25,15,58,6.30
2011,11,25,15,59,6.20
2011,11,25,16,00,6.20
2011,11,25,16,01,6.10
2011,11,25,16,02,6.10
2011,11,25,16,03,6.00
2011,11,25,16,04,5.90
2011,11,25,16,05,5.90
2011,11,25,16,06,5.80
2011,11,25,16,07,5.80
2011,11,25,16,08,5.80
2011,11,25,16,09,5.70
2011,11,25,16,10,5.70
2011,11,25,16,11,5.70
2011,11,25,16,12,5.60
2011,11,25,16,13,5.60
2011,11,25,16,14,5.50
2011,11,25,16,15,5.50
2011,11,25,16,16,5.40
2011,11,25,16,17,5.40
2011,11,25,16,18,5.40
2011,11,25,16,19,5.30
2011,11,25,16,20,5.30
2011,11,25,16,21,5.30
2011,11,25,16,22,5.20
2011,11,25,16,23,5.20
2011,11,25,16,24,5.20
2011,11,25,16,25,5.20
2011,11,25,16,26,5.20
2011,11,25,16,27,5.10
2011,11,25,16,28,5.10
2011,11,25,16,29,5.10
2011,11,25,16,30,5.10
2011,11,25,16,31,5.20
2011,11,25,16,32,5.20
2011,11,25,16,33,5.20
2011,11,25,16,34,5.10
2011,11,25,16,35,5.10
2011,11,25,16,36,5.10
2011,11,25,16,37,5.20
2011,11,25,16,38,5.20
2011,11,25,16,39,5.20
2011,11,25,16,40,5.20
2011,11,25,16,41,5.30
2011,11,25,16,42,5.30
2011,11,25,16,43,5.30
2011,11,25,16,44,5.30
2011,11,25,16,45,5.30
2011,11,25,16,46,5.40
2011,11,25,16,47,5.40
2011,11,25,16,48,5.50
2011,11,25,16,49,5.50
2011,11,25,16,50,5.50
2011,11,25,16,51,5.60
2011,11,25,16,52,5.60
2011,11,25,16,53,5.60
2011,11,25,16,54,5.60
2011,11,25,16,55,5.60
2011,11,25,16,56,5.60
2011,11,25,16,57,5.60
2011,11,25,16,58,5.60
2011,11,25,16,59,5.60
2011,11,25,17,00,5.60
2011,11,25,17,01,5.70
2011,11,25,17,02,5.70
2011,11,25,17,03,5.60
2011,11,25,17,04,5.60
2011,11,25,17,05,5.60
2011,11,25,17,06,5.60
2011,11,25,17,07,5.60
2011,11,25,17,08,5.60
2011,11,25,17,09,5.60
2011,11,25,17,10,5.50
2011,11,25,17,11,5.50
2011,11,25,17,12,5.50
2011,11,25,17,13,5.50
2011,11,25,17,14,5.50
2011,11,25,17,15,5.50
2011,11,25,17,16,5.40
2011,11,25,17,17,5.40
2011,11,25,17,18,5.30
2011,11,25,17,19,5.30
2011,11,25,17,20,5.30
2011,11,25,17,21,5.30
2011,11,25,17,22,5.30
2011,11,25,17,23,5.20
2011,11,25,17,24,5.20
2011,11,25,17,25,5.20
2011,11,25,17,26,5.20
2011,11,25,17,27,5.20
2011,11,25,17,28,5.20
2011,11,25,17,29,5.20
2011,11,25,17,30,5.20
2011,11,25,17,31,5.20
2011,11,25,17,32,5.20
2011,11,25,17,33,5.20
2011,11,25,17,34,5.20
2011,11,25,17,35,5.20
2011,11,25,17,36,5.20
2011,11,25,17,37,5.30
2011,11,25,17,38,5.30
2011,11,25,17,39,5.30
2011,11,25,17,40,5.30
2011,11,25,17,41,5.30
2011,11,25,17,42,5.30
2011,11,25,17,43,5.30
2011,11,25,17,44,5.40
2011,11,25,17,45,5.40
2011,11,25,17,46,5.40
2011,11,25,17,47,5.40
2011,11,25,17,48,5.40
2011,11,25,17,49,5.40
2011,11,25,17,50,5.40
2011,11,25,17,51,5.40
2011,11,25,17,52,5.40
2011,11,25,17,53,5.40
2011,11,25,17,54,5.30
2011,11,25,17,55,5.30
2011,11,25,17,56,5.30
2011,11,25,17,57,5.30
2011,11,25,17,58,5.30
2011,11,25,17,59,5.20
2011,11,25,18,00,5.20
2011,11,25,18,01,5.20
2011,11,25,18,02,5.20
2011,11,25,18,03,5.20
2011,11,25,18,04,5.20
2011,11,25,18,05,5.20
2011,11,25,18,06,5.20
2011,11,25,18,07,5.20
2011,11,25,18,08,5.20
2011,11,25,18,09,5.20
2011,11,25,18,10,5.20